WZZ5V EHEH-EPGD

Flight info

Callsign WZZ5V
Flight time N/A
Altitude 35000
Route VELNI Y869 SUMOP L179 MISRI Z851 ROBEG L980 SAS DCT TABOK L733 BODLA DCT ROVEK DCT LUXAL L730 KOSEX
Aircraft A321/M-SDE1E2E3FGIJ1J4RWXY/LB1

Departure

Time N/A
Airport Eindhoven Airport (EHEH)

Arrival

Time 2026-05-03 20:52
Airport Gdańsk Lech Wałęsa Airport (EPGD)
Time Latitude Longitude Altitude Speed Heading
2026-05-03 20:15 52.78980 12.46557 38923 ft 473 kts 73°
2026-05-03 20:15 52.81008 12.56891 38911 ft 473 kts 73°
2026-05-03 20:16 52.83014 12.67235 38913 ft 473 kts 73°
2026-05-03 20:16 52.85008 12.77625 38870 ft 475 kts 73°
2026-05-03 20:17 52.87008 12.88072 38874 ft 477 kts 73°
2026-05-03 20:17 52.89014 12.98559 38882 ft 478 kts 73°
2026-05-03 20:18 52.91013 13.09085 38902 ft 479 kts 73°
2026-05-03 20:18 52.92994 13.19633 38913 ft 480 kts 73°
2026-05-03 20:19 52.95270 13.30009 38907 ft 480 kts 64°
2026-05-03 20:19 52.98217 13.39930 38920 ft 479 kts 64°
2026-05-03 20:20 53.01125 13.49885 38923 ft 479 kts 64°
2026-05-03 20:20 53.04019 13.59856 38935 ft 479 kts 64°
2026-05-03 20:21 53.06921 13.69752 38922 ft 479 kts 64°
2026-05-03 20:21 53.09859 13.79709 38922 ft 479 kts 64°
2026-05-03 20:22 53.12786 13.89675 38921 ft 479 kts 64°
2026-05-03 20:22 53.15696 13.99653 38924 ft 479 kts 64°
2026-05-03 20:23 53.18588 14.09645 38930 ft 479 kts 64°
2026-05-03 20:23 53.21472 14.19652 38922 ft 479 kts 64°
2026-05-03 20:24 53.24358 14.29666 38922 ft 479 kts 64°
2026-05-03 20:24 53.27223 14.39702 38929 ft 479 kts 65°
2026-05-03 20:25 53.29592 14.50097 38919 ft 479 kts 70°
2026-05-03 20:25 53.31881 14.60542 38922 ft 478 kts 70°
2026-05-03 20:26 53.34163 14.70981 38935 ft 478 kts 70°
2026-05-03 20:26 53.36436 14.81426 38926 ft 477 kts 70°
2026-05-03 20:27 53.39035 14.91622 38927 ft 476 kts 60°
2026-05-03 20:27 53.42279 15.01315 38933 ft 477 kts 60°
2026-05-03 20:28 53.45504 15.11032 38926 ft 477 kts 60°
2026-05-03 20:28 53.48717 15.20771 38930 ft 477 kts 60°
2026-05-03 20:29 53.51929 15.30522 38937 ft 477 kts 60°
2026-05-03 20:29 53.55137 15.40291 38921 ft 478 kts 61°
2026-05-03 20:30 53.58332 15.50104 38928 ft 478 kts 61°
2026-05-03 20:30 53.61527 15.59932 38926 ft 479 kts 61°
2026-05-03 20:31 53.64722 15.69786 38925 ft 479 kts 61°
2026-05-03 20:31 53.67884 15.79591 38870 ft 479 kts 61°
2026-05-03 20:31 53.69468 15.84521 38410 ft 478 kts 61°
2026-05-03 20:32 53.71048 15.89453 37824 ft 476 kts 61°
2026-05-03 20:32 53.72619 15.94360 37245 ft 475 kts 61°
2026-05-03 20:32 53.74185 15.99256 36653 ft 474 kts 61°
2026-05-03 20:32 53.75755 16.04175 35871 ft 477 kts 61°
2026-05-03 20:33 53.77332 16.09123 35089 ft 480 kts 61°
2026-05-03 20:33 53.78920 16.14113 34289 ft 484 kts 61°
2026-05-03 20:33 53.80516 16.19147 33332 ft 488 kts 62°
2026-05-03 20:33 53.82123 16.24234 32367 ft 492 kts 62°
2026-05-03 20:34 53.83738 16.29357 31392 ft 495 kts 62°
2026-05-03 20:34 53.85362 16.34518 30389 ft 498 kts 62°
2026-05-03 20:34 53.86998 16.39729 29161 ft 504 kts 62°
2026-05-03 20:34 53.88639 16.44974 28056 ft 505 kts 62°
2026-05-03 20:35 53.90285 16.50254 26833 ft 508 kts 62°
2026-05-03 20:35 53.92004 16.55496 25539 ft 511 kts 57°
2026-05-03 20:35 53.93960 16.60557 24402 ft 513 kts 56°
2026-05-03 20:35 53.95906 16.65582 23916 ft 507 kts 57°
2026-05-03 20:36 53.97830 16.70578 23453 ft 504 kts 57°
2026-05-03 20:36 53.99738 16.75549 22905 ft 501 kts 57°
2026-05-03 20:36 54.01633 16.80493 22374 ft 497 kts 57°
2026-05-03 20:36 54.03516 16.85413 21921 ft 495 kts 57°
2026-05-03 20:37 54.05383 16.90310 21480 ft 492 kts 57°
2026-05-03 20:37 54.07231 16.95186 21054 ft 488 kts 58°
2026-05-03 20:37 54.08772 17.00238 20616 ft 473 kts 68°
2026-05-03 20:37 54.09769 17.05481 20188 ft 459 kts 79°
2026-05-03 20:38 54.10259 17.10775 19776 ft 446 kts 84°
2026-05-03 20:38 54.10633 17.15969 19320 ft 438 kts 85°
2026-05-03 20:38 54.10941 17.21106 18798 ft 434 kts 86°
2026-05-03 20:38 54.11208 17.26193 18282 ft 427 kts 87°
2026-05-03 20:39 54.11454 17.31144 17705 ft 412 kts 87°
2026-05-03 20:39 54.11691 17.35928 17140 ft 398 kts 87°
2026-05-03 20:39 54.11923 17.40549 16596 ft 385 kts 87°
2026-05-03 20:39 54.12155 17.45023 16059 ft 373 kts 86°
2026-05-03 20:40 54.12386 17.49366 15527 ft 363 kts 86°
2026-05-03 20:40 54.12629 17.53594 15008 ft 354 kts 83°
2026-05-03 20:40 54.13322 17.57595 14501 ft 352 kts 64°
2026-05-03 20:40 54.14682 17.61009 13995 ft 347 kts 44°
2026-05-03 20:41 54.15891 17.62752 13662 ft 342 kts 30°
2026-05-03 20:41 54.17996 17.64575 13111 ft 340 kts 21°
2026-05-03 20:41 54.20157 17.66217 12562 ft 341 kts 21°
2026-05-03 20:41 54.22327 17.67860 12030 ft 341 kts 20°
2026-05-03 20:42 54.24502 17.69513 11496 ft 343 kts 21°
2026-05-03 20:42 54.26666 17.71167 10968 ft 338 kts 21°
2026-05-03 20:42 54.28781 17.72792 10470 ft 329 kts 21°
2026-05-03 20:42 54.30854 17.74385 10175 ft 326 kts 21°
2026-05-03 20:43 54.32896 17.75955 9935 ft 314 kts 21°
2026-05-03 20:43 54.34836 17.77450 9773 ft 297 kts 21°
2026-05-03 20:43 54.36662 17.78864 9632 ft 280 kts 21°
2026-05-03 20:43 54.38388 17.80199 9496 ft 265 kts 21°
2026-05-03 20:44 54.40066 17.81490 9367 ft 264 kts 20°
2026-05-03 20:44 54.41747 17.82778 9241 ft 264 kts 20°
2026-05-03 20:44 54.43423 17.84064 8998 ft 263 kts 20°
2026-05-03 20:44 54.45101 17.85324 8644 ft 264 kts 19°
2026-05-03 20:45 54.46800 17.86537 8295 ft 265 kts 18°
2026-05-03 20:45 54.48501 17.87778 7931 ft 267 kts 25°
2026-05-03 20:45 54.49863 17.89883 7551 ft 264 kts 58°
2026-05-03 20:45 54.50442 17.92804 7176 ft 257 kts 90°
2026-05-03 20:46 54.50162 17.95759 6819 ft 249 kts 116°
2026-05-03 20:46 54.49495 17.98505 6456 ft 249 kts 117°
2026-05-03 20:46 54.48825 18.01249 6088 ft 250 kts 117°
2026-05-03 20:46 54.48159 18.03985 5735 ft 247 kts 116°
2026-05-03 20:47 54.47499 18.06697 5405 ft 244 kts 116°
2026-05-03 20:47 54.46856 18.09333 5094 ft 241 kts 116°
2026-05-03 20:47 54.46206 18.12001 4780 ft 237 kts 116°
2026-05-03 20:47 54.45585 18.14563 4473 ft 234 kts 116°
2026-05-03 20:48 54.44963 18.17133 4159 ft 231 kts 116°
2026-05-03 20:48 54.44349 18.19660 3860 ft 227 kts 116°
2026-05-03 20:48 54.43745 18.22145 3563 ft 224 kts 115°
2026-05-03 20:48 54.43149 18.24596 3272 ft 221 kts 115°
2026-05-03 20:49 54.42562 18.27013 3006 ft 216 kts 115°
2026-05-03 20:49 54.41999 18.29329 2725 ft 204 kts 115°
2026-05-03 20:49 54.41467 18.31519 2445 ft 192 kts 115°
2026-05-03 20:49 54.40974 18.33541 2168 ft 174 kts 115°
2026-05-03 20:50 54.40536 18.35338 1900 ft 154 kts 115°
2026-05-03 20:50 54.40136 18.36979 1675 ft 145 kts 115°
2026-05-03 20:50 54.39745 18.38559 1449 ft 142 kts 116°
2026-05-03 20:50 54.39364 18.40109 1202 ft 140 kts 115°
2026-05-03 20:51 54.38995 18.41634 999 ft 137 kts 115°
2026-05-03 20:51 54.38620 18.43126 768 ft 136 kts 114°
2026-05-03 20:51 54.38260 18.44609 585 ft 134 kts 114°
2026-05-03 20:51 54.37901 18.46057 459 ft 125 kts 113°
2026-05-03 20:52 54.37619 18.47187 460 ft 80 kts 113°
2026-05-03 20:52 54.37438 18.47919 470 ft 58 kts 112°
2026-05-03 20:52 54.37311 18.48436 480 ft 24 kts 112°
2026-05-03 20:52 54.37345 18.48618 484 ft 10 kts 27°
2026-05-03 20:53 54.37407 18.48650 490 ft 5 kts
2026-05-03 20:53 54.37435 18.48631 485 ft 6 kts 321°
2026-05-03 20:53 54.37463 18.48533 479 ft 12 kts 294°
2026-05-03 20:53 54.37504 18.48366 476 ft 18 kts 292°
2026-05-03 20:54 54.37561 18.48133 471 ft 24 kts 292°
2026-05-03 20:54 54.37704 18.47557 463 ft 24 kts 294°
2026-05-03 20:54 54.37765 18.47313 458 ft 22 kts 293°
2026-05-03 20:55 54.37828 18.47057 460 ft 24 kts 293°
2026-05-03 20:55 54.37879 18.46852 460 ft 17 kts 293°
2026-05-03 20:55 54.37923 18.46676 457 ft 8 kts 293°
2026-05-03 20:55 54.37948 18.46598 460 ft 7 kts 315°
2026-05-03 20:56 54.38001 18.46592 460 ft 9 kts 19°
2026-05-03 20:56 54.38044 18.46627 460 ft 7 kts 28°
2026-05-03 20:56 54.38074 18.46656 458 ft 3 kts 28°
2026-05-03 20:56 54.38093 18.46671 460 ft 2 kts 24°
2026-05-03 20:57 54.38097 18.46674 460 ft 0 kts 24°